This is the latest recevied weather packets stored in our database for station/object HA3YA-WX. If no packets are shown the sender has not sent any weather packets the latest 1 day(s).
| Time | Temp. | Humidity | Pressure | Rain* | Wind** | Luminosity | Snow |
|---|---|---|---|---|---|---|---|
| 1778059293 | 23.89° C | 47% | 998.2 hPa | - | - | - | - |
| 1778058093 | 22.78° C | 49% | 998.2 hPa | - | - | - | - |
| 1778056892 | 21.67° C | 52% | 998.2 hPa | - | - | - | - |
| 1778053293 | 20.56° C | 53% | 997 hPa | - | - | - | - |
| 1778052093 | 20.56° C | 54% | 998.2 hPa | - | - | - | - |
| 1778051493 | 20° C | 55% | 998.2 hPa | - | - | - | - |
| 1778050893 | 19.44° C | 56% | 998.2 hPa | - | - | - | - |
| 1778048493 | 17.78° C | 59% | 998.2 hPa | - | - | - | - |
| 1778046693 | 16.11° C | 60% | 998 hPa | - | - | - | - |
| 1778046093 | 16.11° C | 61% | 998 hPa | - | - | - | - |
| 1778045493 | 15.56° C | 61% | 998 hPa | - | - | - | - |
| 1778044893 | 15° C | 62% | 998 hPa | - | - | - | - |
| 1778044293 | 15° C | 63% | 997.9 hPa | - | - | - | - |
| 1778043693 | 13.89° C | 64% | 997.9 hPa | - | - | - | - |
| 1778042493 | 13.33° C | 64% | 997.9 hPa | - | - | - | - |
| 1778041893 | 12.78° C | 63% | 997.9 hPa | - | - | - | - |
| 1778041293 | 12.78° C | 63% | 997 hPa | - | - | - | - |
| 1778040693 | 12.78° C | 63% | 997 hPa | - | - | - | - |
| 1778040093 | 12.78° C | 63% | 997 hPa | - | - | - | - |
| 1778038892 | 12.78° C | 62% | 997 hPa | - | - | - | - |
| 1778038293 | 12.78° C | 62% | 997.6 hPa | - | - | - | - |
| 1778037693 | 12.78° C | 62% | 997.5 hPa | - | - | - | - |
| 1778036493 | 12.78° C | 61% | 997.5 hPa | - | - | - | - |
| 1778035893 | 12.78° C | 60% | 997.5 hPa | - | - | - | - |
| 1778035293 | 12.78° C | 60% | 997.5 hPa | - | - | - | - |
* Rain since midnight (hover to see other rain measurements)
** Current wind speed in m/s (hover to see current wind gust speed)